Time,TemperatureF,DewpointF,PressureIn,WindDirection,WindDirectionDegrees,WindSpeedMPH,WindSpeedGustMPH,Humidity,HourlyPrecipIn,Conditions,Clouds,dailyrainin,SolarRadiationWatts/m^2,SoftwareType,DateUTC
2013-11-12 00:11:00,32.0,6.0,-100.00,WNW,290,1.0,5.0,33,0.00,,,0.00,0.000000,,2013-11-12 08:11:00,
2013-11-12 00:21:00,32.0,6.0,-100.00,WNW,290,1.0,5.0,33,0.00,,,0.00,0.000000,,2013-11-12 08:21:00,
2013-11-12 00:32:00,32.0,6.0,-100.00,WNW,290,1.0,5.0,33,0.00,,,0.00,0.000000,,2013-11-12 08:32:00,
2013-11-12 01:12:00,32.0,6.0,-100.00,WNW,290,1.0,4.0,33,0.00,,,0.00,0.000000,,2013-11-12 09:12:00,
2013-11-12 01:21:00,32.0,6.0,-100.00,WNW,290,1.0,4.0,33,0.00,,,0.00,0.000000,,2013-11-12 09:21:00,
2013-11-12 01:33:00,32.0,6.0,-100.00,WNW,290,1.0,4.0,33,0.00,,,0.00,0.000000,,2013-11-12 09:33:00,
2013-11-12 02:12:00,33.0,10.0,-100.00,WNW,288,1.0,4.0,37,0.00,,,0.00,0.000000,,2013-11-12 10:12:00,
2013-11-12 02:23:00,33.0,10.0,-100.00,WNW,288,1.0,4.0,37,0.00,,,0.00,0.000000,,2013-11-12 10:23:00,
2013-11-12 02:32:00,33.0,10.0,-100.00,WNW,288,1.0,4.0,37,0.00,,,0.00,0.000000,,2013-11-12 10:32:00,
2013-11-12 03:12:00,32.0,7.0,-100.00,WNW,290,0.0,4.0,34,0.00,,,0.00,0.000000,,2013-11-12 11:12:00,
2013-11-12 03:22:00,32.0,7.0,-100.00,WNW,290,0.0,4.0,34,0.00,,,0.00,0.000000,,2013-11-12 11:22:00,
2013-11-12 03:32:00,32.0,7.0,-100.00,WNW,290,0.0,4.0,34,0.00,,,0.00,0.000000,,2013-11-12 11:32:00,
2013-11-12 04:11:00,33.0,7.0,-100.00,WNW,290,0.0,4.0,33,0.00,,,0.00,0.000000,,2013-11-12 12:11:00,
2013-11-12 04:21:00,33.0,7.0,-100.00,WNW,290,0.0,4.0,33,0.00,,,0.00,0.000000,,2013-11-12 12:21:00,
2013-11-12 04:31:00,33.0,7.0,-100.00,WNW,290,0.0,4.0,33,0.00,,,0.00,0.000000,,2013-11-12 12:31:00,
2013-11-12 05:11:00,34.0,9.0,-100.00,WNW,289,0.0,4.0,34,0.00,,,0.00,0.000000,,2013-11-12 13:11:00,
2013-11-12 05:22:00,34.0,9.0,-100.00,WNW,289,0.0,4.0,34,0.00,,,0.00,0.000000,,2013-11-12 13:22:00,
2013-11-12 05:31:00,34.0,9.0,-100.00,WNW,289,0.0,4.0,34,0.00,,,0.00,0.000000,,2013-11-12 13:31:00,
2013-11-12 06:11:00,32.0,6.0,-100.00,WNW,288,0.0,4.0,33,0.00,,,-99.99,0.000000,,2013-11-12 14:11:00,
2013-11-12 06:21:00,32.0,6.0,-100.00,WNW,288,0.0,4.0,33,0.00,,,-99.99,0.000000,,2013-11-12 14:21:00,
2013-11-12 06:32:00,32.0,6.0,-100.00,WNW,288,0.0,4.0,33,0.00,,,-99.99,0.000000,,2013-11-12 14:32:00,
2013-11-12 07:11:00,34.0,7.0,-100.00,WNW,293,0.0,4.0,32,0.00,,,0.00,2.000000,,2013-11-12 15:11:00,
2013-11-12 07:21:00,34.0,7.0,-100.00,WNW,293,0.0,4.0,32,0.00,,,0.00,2.000000,,2013-11-12 15:21:00,
2013-11-12 07:33:00,34.0,7.0,-100.00,WNW,293,0.0,4.0,32,0.00,,,0.00,2.000000,,2013-11-12 15:33:00,
2013-11-12 08:12:00,40.0,15.0,-100.00,East,87,0.0,0.0,36,0.00,,,0.00,58.000000,,2013-11-12 16:12:00,
2013-11-12 08:23:00,40.0,15.0,-100.00,East,87,0.0,0.0,36,0.00,,,0.00,58.000000,,2013-11-12 16:23:00,
2013-11-12 08:33:00,40.0,15.0,-100.00,East,87,0.0,0.0,36,0.00,,,0.00,58.000000,,2013-11-12 16:33:00,
2013-11-12 10:12:00,59.0,26.0,-100.00,ESE,118,0.0,2.0,28,0.00,,,0.00,354.000000,,2013-11-12 18:12:00,
2013-11-12 11:11:00,66.0,17.0,-100.00,ESE,110,0.0,3.0,15,0.00,,,0.00,428.000000,,2013-11-12 19:11:00,
2013-11-12 11:21:00,66.0,17.0,-100.00,ESE,110,0.0,3.0,15,0.00,,,0.00,428.000000,,2013-11-12 19:21:00,
2013-11-12 11:32:00,66.0,17.0,-100.00,ESE,110,0.0,3.0,15,0.00,,,0.00,428.000000,,2013-11-12 19:32:00,
2013-11-12 12:11:00,66.0,17.0,-100.00,East,99,2.0,5.0,15,0.00,,,0.00,405.000000,,2013-11-12 20:11:00,
2013-11-12 12:21:00,66.0,17.0,-100.00,East,99,2.0,5.0,15,0.00,,,0.00,405.000000,,2013-11-12 20:21:00,
2013-11-12 12:31:00,66.0,17.0,-100.00,East,99,2.0,5.0,15,0.00,,,0.00,405.000000,,2013-11-12 20:31:00,
2013-11-12 12:34:00,66.0,20.0,-100.00,ESE,119,1.0,6.0,17,0.00,,,0.00,393.000000,,2013-11-12 20:34:00,
2013-11-12 13:12:00,66.0,20.0,-100.00,ESE,119,1.0,6.0,17,0.00,,,0.00,393.000000,,2013-11-12 21:12:00,
2013-11-12 13:22:00,66.0,20.0,-100.00,ESE,119,1.0,6.0,17,0.00,,,0.00,393.000000,,2013-11-12 21:22:00,
2013-11-12 14:14:00,65.0,22.0,-100.00,NW,309,0.0,5.0,19,0.00,,,0.00,246.000000,,2013-11-12 22:14:00,
2013-11-12 14:24:00,65.0,22.0,-100.00,NW,309,0.0,5.0,19,0.00,,,0.00,246.000000,,2013-11-12 22:24:00,
2013-11-12 14:33:00,65.0,22.0,-100.00,NW,309,0.0,5.0,19,0.00,,,0.00,246.000000,,2013-11-12 22:33:00,
2013-11-12 15:12:00,63.0,18.0,-100.00,ENE,72,0.0,5.0,17,0.00,,,0.00,154.000000,,2013-11-12 23:12:00,
2013-11-12 15:23:00,63.0,18.0,-100.00,ENE,72,0.0,5.0,17,0.00,,,0.00,154.000000,,2013-11-12 23:23:00,
2013-11-12 15:33:00,63.0,18.0,-100.00,ENE,72,0.0,5.0,17,0.00,,,0.00,154.000000,,2013-11-12 23:33:00,
2013-11-12 16:11:00,59.0,17.0,-100.00,SW,216,0.0,5.0,19,0.00,,,0.00,103.000000,,2013-11-13 00:11:00,
2013-11-12 16:22:00,59.0,17.0,-100.00,SW,216,0.0,5.0,19,0.00,,,0.00,103.000000,,2013-11-13 00:22:00,
2013-11-12 16:32:00,59.0,17.0,-100.00,SW,216,0.0,5.0,19,0.00,,,0.00,103.000000,,2013-11-13 00:32:00,
2013-11-12 17:11:00,58.0,20.0,-100.00,North,9,0.0,4.0,23,0.00,,,0.00,71.000000,,2013-11-13 01:11:00,
2013-11-12 17:22:00,58.0,20.0,-100.00,North,9,0.0,4.0,23,0.00,,,0.00,71.000000,,2013-11-13 01:22:00,
2013-11-12 17:32:00,58.0,20.0,-100.00,North,9,0.0,4.0,23,0.00,,,0.00,71.000000,,2013-11-13 01:32:00,
2013-11-12 18:11:00,50.0,18.0,-100.00,WNW,291,1.0,2.0,28,0.00,,,0.00,1.000000,,2013-11-13 02:11:00,
2013-11-12 18:22:00,50.0,18.0,-100.00,WNW,291,1.0,2.0,28,0.00,,,0.00,1.000000,,2013-11-13 02:22:00,
2013-11-12 18:32:00,50.0,18.0,-100.00,WNW,291,1.0,2.0,28,0.00,,,0.00,1.000000,,2013-11-13 02:32:00,
2013-11-12 18:34:00,48.0,17.0,-100.00,WNW,288,0.0,4.0,29,0.00,,,0.00,0.000000,,2013-11-13 02:34:00,
2013-11-12 19:11:00,48.0,17.0,-100.00,WNW,288,0.0,4.0,29,0.00,,,0.00,0.000000,,2013-11-13 03:11:00,
2013-11-12 19:22:00,48.0,17.0,-100.00,WNW,288,0.0,4.0,29,0.00,,,0.00,0.000000,,2013-11-13 03:22:00,
2013-11-12 19:34:00,48.0,18.0,-100.00,WNW,297,0.0,4.0,30,0.00,,,0.00,0.000000,,2013-11-13 03:34:00,
2013-11-12 20:14:00,48.0,18.0,-100.00,WNW,297,0.0,4.0,30,0.00,,,0.00,0.000000,,2013-11-13 04:14:00,
2013-11-12 20:23:00,48.0,18.0,-100.00,WNW,297,0.0,4.0,30,0.00,,,0.00,0.000000,,2013-11-13 04:23:00,
2013-11-12 21:13:00,45.0,17.0,-100.00,WNW,290,1.0,2.0,32,0.00,,,0.00,0.000000,,2013-11-13 05:13:00,
2013-11-12 21:23:00,45.0,17.0,-100.00,WNW,290,1.0,2.0,32,0.00,,,0.00,0.000000,,2013-11-13 05:23:00,
2013-11-12 21:33:00,45.0,17.0,-100.00,WNW,290,1.0,2.0,32,0.00,,,0.00,0.000000,,2013-11-13 05:33:00,
2013-11-12 22:13:00,41.0,15.0,-100.00,WNW,290,1.0,4.0,35,0.00,,,0.00,0.000000,,2013-11-13 06:13:00,
2013-11-12 22:22:00,41.0,15.0,-100.00,WNW,290,1.0,4.0,35,0.00,,,0.00,0.000000,,2013-11-13 06:22:00,
2013-11-12 22:32:00,41.0,15.0,-100.00,WNW,290,1.0,4.0,35,0.00,,,0.00,0.000000,,2013-11-13 06:32:00,
2013-11-12 23:11:00,37.0,13.0,-100.00,WNW,289,0.0,4.0,37,0.00,,,0.00,0.000000,,2013-11-13 07:11:00,